Regional Weather Roundup
Issued by NWS

Home | Current Version | Previous Version | Graphics & Text | Print | Product List | Glossary On
Versions: 1 2 3 4 5 6 7 8 9 10 11 12 13 14 15 16 17 18 19 20 21 22 23 24 25 26 27 28 29 30 31 32 33 34 35 36 37 38 39 40 41 42 43 44 45 46 47 48 49 50
000
ASUS45 KSLC 291210
RWRUT

UTAH REGIONAL WEATHER ROUNDUP
NATIONAL WEATHER SERVICE SALT LAKE CITY UT
600 AM MDT FRI MAY 29 2015

UTZ001>011-023>025-291300-

NORTHERN UTAH

CITY           SKY/WX    TMP DP  RH WIND       PRES   REMARKS
BRIGHAM CITY   CLEAR     49  44  85 CALM      30.18R
HILL AFB       NOT AVBL
LOGAN          CLEAR     42  40  92 CALM      30.20S
OGDEN          CLEAR     48  42  80 S7        30.17R
PROVO AIRPORT  CLEAR     45  37  76 CALM      30.19S
SALT LAKE CITY CLEAR     52  44  74 SE8       30.16R
VERNAL         CLOUDY    48  39  71 CALM      30.22R
WENDOVER       CLEAR     54  46  76 CALM      30.16R
HEBER CITY     CLEAR     36  34  93 CALM      30.24S
WEST JORDAN    CLEAR     46  43  87 CALM      30.18S

$$

UTZ012>022-026-027-291300-

SOUTHERN/CENTRAL UTAH

CITY           SKY/WX    TMP DP  RH WIND       PRES   REMARKS
BLANDING       CLEAR     48  38  69 N8        30.25R
BRYCE CANYON   MOCLDY    43  38  82 N7        30.28F
CEDAR CITY     PTCLDY    49  44  83 E3        30.17R
DELTA          CLEAR     47  43  83 E6        30.16S
HANKSVILLE     CLEAR     50  41  71 CALM      30.16S
MILFORD        CLOUDY    48  44  86 CALM      30.16S
MOAB/CYNLANDS  CLEAR     52  41  66 CALM      30.13S
PRICE          CLEAR     46  33  60 N9        30.20S
ST GEORGE      SUNNY     66  37  34 E6        30.03R
KANAB          PTCLDY    61  39  44 N10       30.16R

$$

REGIONAL REPORTS     COLORADO/ARIZONA

CITY           SKY/WX    TMP DP  RH WIND       PRES   REMARKS
CRAIG, CO      PTCLDY    39  37  92 CALM      30.26R
GRAND JUNCTION CLEAR     43  42  97 SE3       30.18R
RIFLE          CLEAR     40  36  86 E3        30.24R
MONTROSE       CLEAR     42  38  85 S5        30.24R
CORTEZ         CLEAR     39  36  89 NE6       30.19R WCI  35
PAGE, AZ       MOCLDY    66  42  41 W5        30.10R
GRAND CANYON   PTCLDY    41  37  86 CALM      30.22R
KINGMAN        CLEAR     62  22  21 SE10      30.01R
FLAGSTAFF      MOCLDY    42  28  57 CALM      30.24S

$$

REGIONAL REPORTS    NEVADA/IDAHO/WYOMING

CITY           SKY/WX    TMP DP  RH WIND       PRES   REMARKS
LAS VEGAS, NV  PTCLDY    76  33  21 SW6       29.87R
ELY            PTCLDY    43  40  89 S7        30.23R
ELKO           CLEAR     46  42  86 S3        30.16S
POCATELLO, ID  CLEAR     45  44  97 NE7       30.21R
BURLEY         CLEAR     51  47  86 NE10      30.16S
EVANSTON, WY   PTCLDY    40  34  79 S5        30.28R
ROCK SPRINGS   CLOUDY    42  38  85 E5        30.28R
KEMMERER       CLEAR     34  34 100 N8        30.29R WCI  27

$$



USA.gov is the U.S. government's official web portal to all federal, state and local government web resources and services.